Fargo, ND

10:32 AM CDT on April 27, 2017 (GMT -0500)
Hector International

Weather History for KFAR - June, 2013

Change the Weather History Date:

Wednesday, June 12, 2013

  Actual Average Record
Temperature  
Mean Temperature 66 °F 65 °F  
Max Temperature 77 °F 77 °F 101 °F (1893)
Min Temperature 55 °F 54 °F 38 °F (1927)
Degree Days  
Heating Degree Days 0 3  
Month to date heating degree days 62 43  
Since 1 June heating degree days 62 43  
Since 1 July heating degree days 9304 8772  
Cooling Degree Days 1 3  
Month to date cooling degree days 5 28  
Year to date cooling degree days 34 59  
Since 1 June cooling degree days 5 28  
Growing Degree Days 18 (Base 50)    
Moisture  
Dew Point 52 °F    
Average Humidity 60    
Maximum Humidity 78    
Minimum Humidity 41    
Precipitation  
Precipitation 0.01 in 0.13 in 2.08 in (1915)
Month to date precipitation 1.09 1.51  
Year to date precipitation 13.99 8.32  
Snow  
Snow 0.00 in 0.00 in 0.00 in ()
Month to date snowfall 0.0 0.0  
Since 1 June snowfall 0.0 0.0  
Since 1 July snowfall 68.4 50.4  
Snow Depth 0.00 in    
Sea Level Pressure  
Sea Level Pressure 29.93 in    
Wind  
Wind Speed 9 mph (North)    
Max Wind Speed 22 mph    
Max Gust Speed 32 mph    
Visibility 10 miles    
Events Rain    
T = Trace of Precipitation, MM = Missing Value Source: NWS Daily Summary

Daily Weather History Graph

Daily Weather History Graph

Search for Another Location

Airport or City:

Trip Planner

Search our weather history database for the weather conditions in past years. The results will help you decide how hot, cold, wet, or windy it might be!

Date:

Astronomy

Jun. 12, 2013 Rise Set
Actual Time 5:32 AM CDT 9:22 PM CDT
Civil Twilight 4:52 AM CDT 10:02 PM CDT
Nautical Twilight 3:58 AM CDT 10:55 PM CDT
Astronomical Twilight 2:40 AM CDT 12:15 AM CDT
Moon 9:24 AM CDT (6/12) 11:45 PM CDT (6/12)
Length of Visible Light 17h 09m
Length of Day
15h 50m
Waxing Crescent, 14% of the Moon is Illuminated
Jun 12
Waxing Crescent
Jun 16
First Quarter
Jun 23
Full
Jun 29
Last Quarter
Jul 8
New

Hourly Weather History & Observations

Time (CDT) Temp. Dew Point Humidity Pressure Visibility Wind Dir Wind Speed Gust Speed Precip Events Conditions
12:53 AM 66.0 °F 54.0 °F 65% 29.87 in 10.0 mi Calm Calm - N/A   Clear
1:53 AM 64.9 °F 54.0 °F 68% 29.86 in 10.0 mi Calm Calm - N/A   Partly Cloudy
2:53 AM 64.0 °F 54.0 °F 70% 29.86 in 10.0 mi Calm Calm - N/A   Scattered Clouds
3:53 AM 63.0 °F 55.9 °F 78% 29.86 in 10.0 mi North 3.5 mph - N/A   Mostly Cloudy
4:53 AM 62.1 °F 54.0 °F 75% 29.87 in 10.0 mi North 3.5 mph - N/A   Partly Cloudy
5:53 AM 63.0 °F 54.0 °F 72% 29.88 in 10.0 mi NNE 3.5 mph - N/A   Partly Cloudy
6:53 AM 62.1 °F 54.0 °F 75% 29.91 in 10.0 mi Calm Calm - N/A   Overcast
7:53 AM 66.0 °F 55.0 °F 68% 29.88 in 10.0 mi NNE 5.8 mph - N/A   Partly Cloudy
8:53 AM 70.0 °F 53.1 °F 55% 29.84 in 10.0 mi NNE 11.5 mph - N/A   Clear
9:53 AM 69.1 °F 54.0 °F 58% 29.88 in 10.0 mi NNE 8.1 mph - N/A   Mostly Cloudy
10:53 AM 66.0 °F 57.0 °F 73% 29.93 in 10.0 mi NW 6.9 mph - 0.00 in Rain Light Rain
11:53 AM 69.1 °F 54.0 °F 58% 29.96 in 10.0 mi North 10.4 mph - 0.01 in   Overcast
12:53 PM 68.0 °F 54.0 °F 61% 29.95 in 10.0 mi North 12.7 mph - N/A   Overcast
1:53 PM 70.0 °F 54.0 °F 57% 29.95 in 10.0 mi NNW 9.2 mph - 0.00 in   Overcast
2:53 PM 72.0 °F 51.1 °F 48% 29.96 in 10.0 mi NNW 15.0 mph - N/A   Partly Cloudy
3:53 PM 75.0 °F 51.1 °F 43% 29.96 in 10.0 mi NNW 15.0 mph 19.6 mph N/A   Clear
4:53 PM 73.0 °F 50.0 °F 44% 29.97 in 10.0 mi NNW 19.6 mph - N/A   Partly Cloudy
5:53 PM 72.0 °F 48.9 °F 44% 29.97 in 10.0 mi North 17.3 mph 24.2 mph N/A   Clear
6:53 PM 73.0 °F 48.0 °F 41% 29.97 in 10.0 mi North 18.4 mph - N/A   Clear
7:53 PM 70.0 °F 46.9 °F 44% 29.99 in 10.0 mi North 13.8 mph - N/A   Partly Cloudy
8:53 PM 68.0 °F 48.0 °F 49% 30.00 in 10.0 mi North 9.2 mph - N/A   Clear
9:53 PM 62.1 °F 50.0 °F 65% 30.02 in 10.0 mi NNW 6.9 mph - N/A   Clear
10:53 PM 60.1 °F 48.9 °F 67% 30.05 in 10.0 mi NNW 6.9 mph - N/A   Clear
11:53 PM 57.9 °F 48.9 °F 72% 30.06 in 10.0 mi NW 3.5 mph - N/A   Clear